Other Public Products
Issued by NWS Grand Forks, ND

Home | Current Version | Previous Version | Text Only | Print | Product List | Glossary Off
Versions: 1 2 3 4 5 6 7 8 9 10 11 12 13 14 15 16 17 18 19 20 21 22 23 24 25 26 27 28 29 30 31 32 33 34 35 36 37 38 39 40 41 42 43 44 45 46 47 48 49 50

000
FPUS83 KFGF 271110
OPUFGF
PRAIRIE TO PINES WEATHER ROUNDUP
NATIONAL WEATHER SERVICE EASTERN NORTH DAKOTA/GRAND FORKS ND
600 AM CDT SAT MAY 27 2017

 **SATELLITE DATA USED TO AUGMENT SKY COVER AT AUTOMATED STATIONS**
 *****  WEATHER ACROSS EASTERN NORTH DAKOTA  *****

CITY           SKY/WX    TMP DP  RH WIND       PRES   REMARKS
GRAND FORKS    FAIR      51  42  71 SW8       29.77R
GRAND FORKS AF FAIR      49  41  74 W9        29.77S
GRAND CITY NWS NOT AVBL
BUXTON         NOT AVBL
DEVILS LAKE    FAIR      50  42  74 W12       29.80R
FARGO          FAIR      49  42  77 S8        29.82S
WAHPETON ARPT  FAIR      46  41  81 S5        29.85R
$$

 *****  WEATHER ACROSS CENTRAL AND WESTERN NORTH DAKOTA  *****

CITY           SKY/WX    TMP DP  RH WIND       PRES   REMARKS
JAMESTOWN      FAIR      50  41  71 W8        29.84R
BISMARCK       FAIR      45  37  73 W5        29.87F
MINOT          CLOUDY    52  40  63 SW10      29.80S
MINOT AFB      MOCLDY    49  40  70 W7        29.80R
GARRISON         N/A     44  37  76 W9        29.85R
WILLISTON      CLOUDY    50  40  68 W13       29.87S
DICKINSON      FAIR      38  33  82 W9        29.89
HETTINGER      FAIR      36  32  85 NW5       29.94R
$$

 *****  OTHER OBSERVATIONS NORTHEAST NORTH DAKOTA  *****

CITY           SKY/WX    TMP DP  RH WIND       PRES   REMARKS
WALHALLA       NOT AVBL
LANGDON        FAIR      43  41  93 SW9       29.77R
CAVALIER       FAIR      50  39  66 SW9       29.74R
GRAFTON        FAIR      48  45  87 SW10      29.77S
CANDO          NOT AVBL
FORT TOTTEN      N/A     48  40  73 W3        29.95S
ROLLA          FAIR      45  41  87 SW8       29.77R
RUGBY          NOT AVBL
 ***** THE ABOVE OBSERVATIONS ARE NON NWS ARE NOT QUALITY
        CONTROLLED AND MAY MIS-REPORT RAIN FOR SNOW...
$$

 *****  OTHER OBSERVATIONS SOUTHEAST NORTH DAKOTA *****

CITY           SKY/WX    TMP DP  RH WIND       PRES   REMARKS
COOPERSTOWN    FAIR      46  41  81 W12       29.82R
VALLEY CITY    FAIR      50  43  76 W12       29.85R
OAKES          NOT AVBL
GWINNER        SUNNY     52  46  82 MISG      29.85S
SHEYENNE NWR     N/A     44  42  94 SW5       29.95S
BUFFALO        NOT AVBL
WYNDMERE         N/A     48  45  87 W3          N/A
 ***** THE ABOVE OBSERVATIONS ARE NON NWS ARE NOT QUALITY
       CONTROLLED AND MAY MIS-REPORT RAIN FOR SNOW...
$$

  *****  WEATHER ACROSS NORTHERN MINNESOTA  *****

CITY           SKY/WX    TMP DP  RH WIND       PRES   REMARKS
FLAG ISLAND    FAIR      50  43  76 SW12      29.73S
WARROAD        FAIR      46  43  87 S6        29.76S
ROSEAU         FAIR      46  41  81 S6        29.76S
HALLOCK        FAIR      43  39  87 S9        29.75R
THF RVR FALLS  FAIR      47  41  80 S8        29.79S
HALSTAD          N/A     44  39  85 SW8         N/A
FOSSTON        FAIR      45  39  81 S7        29.81S
BAUDETTE       FAIR      45  42  89 S6        29.77S
WASKISH        FAIR      48  45  87 CALM      29.79S
CROOKSTON      FAIR      46  41  81 S7        29.79S
$$
  *****  WEATHER ACROSS CENTRAL AND WEST MINNESOTA  *****

CITY           SKY/WX    TMP DP  RH WIND       PRES   REMARKS
BEMIDJI        FAIR      47  43  85 SW3       29.81F
PARK RAPIDS    FAIR      48  41  76 CALM      29.83S
WADENA         FAIR      48  43  81 CALM      29.85S
DETROIT LAKES  FAIR      50  45  81 CALM      29.84F
MOORHEAD       FAIR      50  43  76 S5        29.84R
FERGUS FALLS   FAIR      50  45  81 S5        29.84S
ELBOW LAKE     FAIR      47  45  91 CALM      29.86F
MORRIS MN      FAIR      48  46  93 S5        29.86F
STAPLES        FAIR      48  43  81 CALM      29.85F
WHEATON        FAIR      52  45  76 S5        29.88R
$$
  *****  WEATHER ELSEWHERE ACROSS MINNESOTA  *****

CITY           SKY/WX    TMP DP  RH WIND       PRES   REMARKS
DULUTH         FAIR      49  44  83 NW6       29.83R
INTRNTL FALLS  FAIR      44  41  89 CALM      29.78S
ELY            FAIR      45  43  93 CALM      29.81S
CLOQUET        FAIR      48  43  81 W6        29.84R
BRAINERD       FAIR      45  44  97 S3        29.86S
HIBBING        FAIR      40  40 100 CALM      29.82R
ALEXANDRIA     FAIR      49  45  86 CALM      29.87F
SAINT CLOUD    FAIR      45  45 100 CALM      29.87S
MINNEAPOLIS    FAIR      55  47  74 SW3       29.88R
$$

  *****  WEATHER ACROSS SOUTH DAKOTA  *****

CITY           SKY/WX    TMP DP  RH WIND       PRES   REMARKS
SIOUX FALLS    CLOUDY    53  49  86 W5        29.91
BROOKINGS      CLOUDY    54  49  83 CALM      29.91R
WATERTOWN      MOCLDY    49  45  86 S6        29.90R
HURON          LGT RAIN  55  49  80 NW6       29.92R
SISSETON         N/A     56  47  71 W3        29.85S
ABERDEEN       CLOUDY    50  43  77 SW6       29.89R
MITCHELL       CLOUDY    58  47  66 W5        29.91R
PIERRE         CLOUDY    57  45  64 NW8       29.92R
MOBRIDGE       FAIR      54  40  59 NW3       29.88R
RAPID CITY     CLOUDY    48  45  89 NW6       29.98R
$$

  *****  SOME WEATHER IN NEARBY STATES *****

CITY           SKY/WX    TMP DP  RH WIND       PRES   REMARKS
GLASGOW MT     CLOUDY    48  40  73 W5        29.90R
GREAT FALLS MT FAIR      44  36  73 SW12      30.03R
CHEYENNE WY    CLOUDY    44  36  73 NW7       30.03S
SCOTTSBLUFF NE CLOUDY    49  47  93 NW6       30.01R
OMAHA NE       CLOUDY    56  49  77 NW6       29.88R
DES MOINES IA  FOG       61  59  93 E6        29.87S VSB 1
DAVENPORT IA   FOG       57  55  93 N6        29.91R VSB 1/2
CHICAGO IL     MOCLDY    53  50  89 E6        29.88R
EAU CLAIRE WI  FAIR      53  52  96 CALM      29.85R
LA CROSSE WI   FAIR      59  57  93 S5        29.87S FOG
$$

  *****  SOME NATIONAL WEATHER *****

CITY           SKY/WX    TMP DP  RH WIND       PRES   REMARKS
LA GUARDIA NY  FAIR      63  54  72 NW8       29.87R
RALEIGH NC     FAIR      63  59  87 W3        29.95S
ATLANTA GA     MOCLDY    66  62  87 SW6       30.03R
NEW ORLEANS LA CLOUDY    77  75  93 S6        29.99R
OKLAHOMA CITY  FAIR      71  70  96 S12       29.74F
ALBUQUERQUE NM FAIR      63  10  12 SW9       30.07R
SALT LAKE CITY FAIR      49  40  71 CALM      30.13R
LOS ANGELES CA MOCLDY    59  52  77 W9        30.01F
BOISE ID       FAIR      50  40  68 SE8       30.10R
SEATTLE WA     FAIR      60  48  64 CALM      30.05S
$$

*** WEATHER ACROSS MANITOBA...SASKATCHEWAN AND ONTARIO ***
                ***ONTARIO***

CITY           SKY/WX    TMP DP  RH WIND       PRES   REMARKS
GERALDTON      MOCLDY    54  52  94 SE2       29.79R
THUNDER BAY    MOCLDY    45  45 100 W2        29.79R
SIOUX LOOKOUT  PTCLDY    48  48 100 SW2       29.72S
TORONTO        CLOUDY    57  54  88 NW5       29.89R
BIG TROUT LK   CLOUDY    52  50  93 S5        29.65S
PICKLE LAKE    MOCLDY    50  50 100 S8        29.70
DRYDEN         CLEAR     50  46  87 S8        29.73S
KENORA         MOCLDY    50  46  87 SW6       29.73R
$$
                *** MANITOBA***

CITY           SKY/WX    TMP DP  RH WIND       PRES   REMARKS
BRANDON        PTCLDY    39  37  93 NW5       29.72S
DAUPHIN        MOCLDY    50  43  76 W7        29.68S
ISLAND LAKE    MOCLDY    50  46  87 SE5       29.60R
PILOT MOUND      N/A     41  37  87 SW5         N/A
THE PAS        CLOUDY    50  48  93 NW12      29.57R
THOMPSON       FOG       50  48  93 NE8       29.52R VSB 1/2
WINNIPEG       MOCLDY    50  45  81 SW7       29.71S
LYNN LAKE      LGT RAIN  43  41  93 NE7       29.60S
CHURCHILL      LGT RAIN  34  34 100 NE14      29.68S WCI  24
GILLAM         FOG       43  43 100 NE6       29.57S VSB 1/8
$$
                ***SASKATCHEWAN***

CITY           SKY/WX    TMP DP  RH WIND       PRES   REMARKS
ESTEVAN        PTCLDY    43  39  87 SW12      29.81R
KINDERSLEY     PTCLDY    46  43  87 W9        29.82R
LLOYDMINSTER   CLOUDY    50  43  76 NW8       29.81R
PRINCE ALBERT  PTCLDY    39  37  93 W5        29.74S
REGINA         PTCLDY    43  39  87 W6        29.78R
YORKTON          N/A     48  43  81 W10       29.71S



USA.gov is the U.S. government's official web portal to all federal, state and local government web resources and services.